Weather History for KCCY - April, 2013

Change the Weather History Date:

Monday, April 8, 2013

  Actual Average Record
Temperature  
Mean Temperature 52 °F -  
Max Temperature 60 °F 52 °F - (-1)
Min Temperature 44 °F 33 °F - (-1)
Degree Days  
Heating Degree Days 13    
Growing Degree Days 2 (Base 50)    
Moisture  
Dew Point 47 °F    
Average Humidity 85    
Maximum Humidity 100    
Minimum Humidity 67    
Precipitation  
Precipitation 0.62 in - - ()
Sea Level Pressure  
Sea Level Pressure 29.75 in    
Wind  
Wind Speed 10 mph (ENE)    
Max Wind Speed 21 mph    
Max Gust Speed 26 mph    
Visibility 5 miles    
Events Fog , Rain    
Averages and records for this station are not official NWS values.
T = Trace of Precipitation, MM = Missing Value Source: NWS Daily Summary

Daily Weather History Graph

Daily Weather History Graph

Search for Another Location

Airport or City:

Trip Planner

Search our weather history database for the weather conditions in past years. The results will help you decide how hot, cold, wet, or windy it might be!

Date:

Astronomy

Apr. 08, 2013 Rise Set
Actual Time 6:39 AM CDT 7:45 PM CDT
Civil Twilight 6:10 AM CDT 8:14 PM CDT
Nautical Twilight 5:36 AM CDT 8:49 PM CDT
Astronomical Twilight 4:59 AM CDT 9:25 PM CDT
Moon 5:32 AM CDT (4/8) 6:18 PM CDT (4/8)
Length of Visible Light 14h 03m
Length of Day
13h 05m
Waning Crescent, 3% of the Moon is Illuminated
Apr 8
Waning Crescent
Apr 10
New
Apr 18
First Quarter
Apr 25
Full
May 2
Last Quarter

Hourly Weather History & Observations

Time (CDT) Temp. Windchill Dew Point Humidity Pressure Visibility Wind Dir Wind Speed Gust Speed Precip Events Conditions
12:15 AM 50.0 °F - 41.0 °F 71% 29.71 in 10.0 mi SE 12.7 mph 18.4 mph N/A   Overcast
12:35 AM 50.0 °F - 41.0 °F 71% 29.71 in 10.0 mi SE 12.7 mph - N/A   Overcast
12:55 AM 50.0 °F - 41.0 °F 71% 29.70 in 10.0 mi SE 11.5 mph - N/A   Overcast
1:15 AM 50.0 °F - 41.0 °F 71% 29.69 in 10.0 mi SE 13.8 mph - N/A   Overcast
1:35 AM 50.0 °F - 41.0 °F 71% 29.68 in 10.0 mi SE 15.0 mph - N/A   Overcast
1:55 AM 51.8 °F - 41.0 °F 67% 29.68 in 10.0 mi SE 15.0 mph - N/A   Overcast
2:15 AM 50.0 °F - 41.0 °F 71% 29.71 in 10.0 mi NW 9.2 mph - N/A   Overcast
2:35 AM 48.2 °F - 42.8 °F 82% 29.72 in 4.0 mi WNW 6.9 mph 19.6 mph N/A Rain Rain
2:55 AM 50.0 °F - 42.8 °F 76% 29.70 in 9.0 mi NE 4.6 mph - 0.02 in   Overcast
3:15 AM 48.2 °F - 42.8 °F 82% 29.69 in 10.0 mi NE 5.8 mph - N/A   Overcast
3:35 AM 46.4 °F 43.5 °F 42.8 °F 87% 29.68 in 3.0 mi NE 5.8 mph - N/A Rain Heavy Rain
3:55 AM 46.4 °F 42.9 °F 42.8 °F 87% 29.67 in 3.0 mi ENE 6.9 mph - 0.10 in Rain Light Rain
4:15 AM 46.4 °F 41.5 °F 44.6 °F 93% 29.66 in 2.0 mi East 10.4 mph - N/A Rain Rain
4:35 AM 46.4 °F 41.1 °F 44.6 °F 93% 29.65 in 2.0 mi ESE 11.5 mph - N/A Rain Rain
4:55 AM 46.4 °F 39.8 °F 44.6 °F 93% 29.64 in 1.2 mi ESE 16.1 mph - 0.43 in Rain Rain
5:15 AM 46.4 °F 40.4 °F 44.6 °F 93% 29.65 in 3.0 mi East 13.8 mph - N/A Rain Light Rain
5:35 AM 46.4 °F 41.1 °F 44.6 °F 93% 29.66 in 3.0 mi East 11.5 mph - N/A Rain Light Rain
5:55 AM 46.4 °F 41.5 °F 44.6 °F 93% 29.65 in 3.0 mi ESE 10.4 mph - 0.07 in Rain Light Rain
6:15 AM 46.4 °F 41.1 °F 44.6 °F 93% 29.64 in 3.0 mi ESE 11.5 mph - N/A   Overcast
6:35 AM 46.4 °F 42.4 °F 44.6 °F 93% 29.65 in 3.0 mi ESE 8.1 mph - N/A   Overcast
6:55 AM 46.4 °F 43.5 °F 44.6 °F 93% 29.66 in 2.5 mi East 5.8 mph - N/A   Overcast
7:15 AM 44.6 °F 41.4 °F 44.6 °F 100% 29.67 in 1.8 mi ESE 5.8 mph - N/A   Overcast
7:35 AM 44.6 °F 41.4 °F 44.6 °F 100% 29.68 in 1.5 mi SE 5.8 mph - N/A   Overcast
7:55 AM 44.6 °F 40.2 °F 44.6 °F 100% 29.68 in 1.2 mi ESE 8.1 mph - N/A   Overcast
8:15 AM 46.4 °F 42.9 °F 44.6 °F 93% 29.68 in 1.0 mi ESE 6.9 mph - N/A   Overcast
8:35 AM 46.4 °F 44.3 °F 44.6 °F 93% 29.68 in 1.0 mi ESE 4.6 mph - N/A   Overcast
8:55 AM 46.4 °F 44.3 °F 44.6 °F 93% 29.69 in 0.2 mi SE 4.6 mph - N/A Fog Fog
9:15 AM 46.4 °F 42.9 °F 46.4 °F 100% 29.69 in 0.2 mi SSE 6.9 mph - N/A Fog Fog
9:55 AM 48.2 °F - 48.2 °F 100% 29.70 in 0.2 mi South 9.2 mph - N/A Fog Fog
10:15 AM 48.2 °F - 48.2 °F 100% 29.71 in 0.2 mi SSW 6.9 mph 12.7 mph N/A Fog Fog
10:35 AM 50.0 °F - 48.2 °F 94% 29.71 in 0.2 mi SSW 8.1 mph - N/A Fog Fog
10:55 AM 50.0 °F - 50.0 °F 100% 29.71 in 0.2 mi SW 4.6 mph - N/A Fog Fog
11:15 AM 51.8 °F - 50.0 °F 94% 29.72 in 0.8 mi WNW 4.6 mph - N/A   Overcast
11:35 AM 51.8 °F - 50.0 °F 94% 29.73 in 2.0 mi WNW 4.6 mph - N/A   Overcast
11:55 AM 53.6 °F - 51.8 °F 94% 29.74 in 4.0 mi Calm Calm - N/A   Overcast
12:15 PM 55.4 °F - 51.8 °F 88% 29.75 in 5.0 mi NNW 4.6 mph - N/A   Overcast
12:35 PM 55.4 °F - 51.8 °F 88% 29.75 in 6.0 mi North 6.9 mph - N/A   Haze
12:55 PM 57.2 °F - 51.8 °F 82% 29.74 in 6.0 mi NE 8.1 mph - N/A   Mostly Cloudy
1:15 PM 57.2 °F - 51.8 °F 82% 29.74 in 6.0 mi North 9.2 mph - N/A   Haze
1:35 PM 57.2 °F - 51.8 °F 82% 29.75 in 7.0 mi North 5.8 mph 11.5 mph N/A   Mostly Cloudy
1:55 PM 57.2 °F - 51.8 °F 82% 29.75 in 7.0 mi North 5.8 mph - N/A   Overcast
2:15 PM 59.0 °F - 51.8 °F 77% 29.75 in 8.0 mi NNE 4.6 mph - N/A   Overcast
2:35 PM 59.0 °F - 51.8 °F 77% 29.75 in 8.0 mi North 6.9 mph - N/A   Overcast
2:55 PM 59.0 °F - 51.8 °F 77% 29.75 in 9.0 mi North 8.1 mph - N/A   Mostly Cloudy
3:15 PM 59.0 °F - 51.8 °F 77% 29.76 in 8.0 mi NNE 5.8 mph - N/A   Scattered Clouds
3:35 PM 60.8 °F - 53.6 °F 77% 29.75 in 8.0 mi NNE 6.9 mph - N/A   Scattered Clouds
3:55 PM 60.8 °F - 53.6 °F 77% 29.76 in 8.0 mi NE 8.1 mph - N/A   Scattered Clouds
4:15 PM 60.8 °F - 53.6 °F 77% 29.76 in 9.0 mi NE 11.5 mph - N/A   Scattered Clouds
4:35 PM 60.8 °F - 53.6 °F 77% 29.77 in 8.0 mi NNE 11.5 mph - N/A   Scattered Clouds
4:55 PM 60.8 °F - 51.8 °F 72% 29.78 in 8.0 mi NNE 13.8 mph - N/A   Clear
5:15 PM 59.0 °F - 51.8 °F 77% 29.78 in 7.0 mi NNE 15.0 mph - N/A   Clear
5:35 PM 59.0 °F - 51.8 °F 77% 29.78 in 6.0 mi NE 12.7 mph - N/A   Haze
5:55 PM 57.2 °F - 50.0 °F 77% 29.79 in 6.0 mi NE 15.0 mph - N/A   Haze
6:15 PM 57.2 °F - 50.0 °F 77% 29.80 in 6.0 mi NE 15.0 mph - N/A   Haze
6:35 PM 55.4 °F - 50.0 °F 82% 29.81 in 5.0 mi NE 13.8 mph - N/A   Haze
6:55 PM 53.6 °F - 48.2 °F 82% 29.82 in 5.0 mi NE 15.0 mph - N/A   Haze
7:15 PM 51.8 °F - 48.2 °F 88% 29.82 in 5.0 mi NE 12.7 mph - N/A   Haze
7:35 PM 51.8 °F - 48.2 °F 88% 29.83 in 4.0 mi NE 11.5 mph - N/A   Clear
7:55 PM 50.0 °F - 48.2 °F 94% 29.84 in 4.0 mi NE 10.4 mph - N/A   Clear
8:15 PM 50.0 °F - 46.4 °F 87% 29.85 in 5.0 mi NE 12.7 mph - N/A   Scattered Clouds
8:35 PM 50.0 °F - 46.4 °F 87% 29.87 in 5.0 mi NE 10.4 mph - N/A   Overcast
8:55 PM 50.0 °F - 46.4 °F 87% 29.88 in 5.0 mi NNE 12.7 mph - N/A   Overcast
9:15 PM 48.2 °F - 44.6 °F 87% 29.89 in 5.0 mi NNE 15.0 mph - N/A   Overcast
9:35 PM 48.2 °F - 44.6 °F 87% 29.90 in 4.0 mi NNE 16.1 mph - N/A   Overcast
9:55 PM 48.2 °F - 42.8 °F 82% 29.90 in 4.0 mi NNE 18.4 mph - N/A   Mostly Cloudy
10:15 PM 46.4 °F 38.7 °F 42.8 °F 87% 29.89 in 4.0 mi NE 20.7 mph 26.5 mph N/A   Scattered Clouds
10:35 PM 46.4 °F 39.5 °F 42.8 °F 87% 29.91 in 4.0 mi NE 17.3 mph 23.0 mph N/A   Clear
10:55 PM 46.4 °F 39.8 °F 41.0 °F 81% 29.91 in 5.0 mi NE 16.1 mph 23.0 mph N/A   Scattered Clouds
11:15 PM 44.6 °F 37.2 °F 41.0 °F 87% 29.91 in 5.0 mi NE 17.3 mph 24.2 mph N/A   Mostly Cloudy
11:35 PM 44.6 °F 37.8 °F 41.0 °F 87% 29.92 in 5.0 mi NE 15.0 mph 23.0 mph N/A   Overcast